Precipitable_Water
0.78 0.76 0.74 0.75 0.71 0.71 0.67 0.64 0.68 0.70 0.67 0.72 0.77 0.87 0.93 0.96 1.03 1.01 0.92 1.05 0.92 0.79 0.91 1.08 1.16 0.96 0.96 0.95 0.83 0.81 0.75 0.72 0.66 0.55 0.51 0.40 0.40 0.43 0.43 0.50 0.46 0.47 0.43 0.45 0.46 0.41 0.42 0.81 0.77 0.65 0.83 0.93 0.90 0.88
0.74 0.72 0.71 0.71 0.72 0.70 0.70 0.66 0.64 0.67 0.68 0.68 0.76 0.85 0.90 0.96 1.03 1.05 0.88 1.02 1.01 0.81 0.73 1.02 1.24 1.22 1.17 1.10 1.01 0.96 0.86 0.79 0.68 0.61 0.61 0.52 0.49 0.58 0.50 0.46 0.63 0.52 0.60 0.56 0.61 0.64 0.80 0.90 0.83 0.92 0.97 0.94 0.96 0.93
0.69 0.69 0.68 0.68 0.70 0.70 0.69 0.69 0.66 0.66 0.70 0.66 0.66 0.77 0.87 0.95 1.03 1.03 0.93 0.94 0.91 0.77 0.74 0.84 0.95 1.17 1.21 1.21 1.26 0.94 0.95 0.96 0.87 0.84 0.75 0.64 0.61 0.66 0.56 0.60 0.61 0.66 0.74 0.66 0.67 0.80 0.79 0.85 0.98 1.04 1.00 0.91 0.92 0.94
0.67 0.67 0.65 0.66 0.68 0.71 0.68 0.70 0.70 0.67 0.71 0.71 0.68 0.72 0.81 0.90 1.01 1.04 0.89 0.95 0.91 0.82 0.65 0.77 1.15 1.10 1.13 1.19 1.23 1.19 1.08 1.11 1.02 0.88 0.75 0.69 0.67 0.73 0.66 0.68 0.69 0.80 0.80 0.75 0.75 0.81 0.88 0.94 0.97 0.99 0.96 0.88 0.85 1.04
0.67 0.66 0.66 0.67 0.69 0.71 0.67 0.68 0.71 0.71 0.73 0.73 0.67 0.68 0.73 0.84 1.00 1.02 0.95 0.97 0.99 0.82 0.68 0.78 1.04 1.09 1.13 1.12 1.12 1.18 1.13 1.06 0.96 0.83 0.73 0.69 0.72 0.71 0.79 0.76 0.70 0.82 0.79 0.73 0.77 0.93 0.87 0.87 0.94 0.97 0.88 0.84 0.94 1.03
0.67 0.68 0.69 0.69 0.69 0.69 0.69 0.71 0.72 0.73 0.74 0.73 0.69 0.67 0.69 0.86 1.01 0.94 0.82 0.95 1.03 1.03 0.85 0.71 1.03 0.97 1.00 1.01 1.02 1.10 1.08 1.06 1.02 0.89 0.79 0.74 0.79 0.72 0.69 0.66 0.85 0.92 0.95 0.97 0.91 0.99 0.92 0.88 0.88 0.93 0.82 0.87 1.10 1.17
0.69 0.68 0.71 0.73 0.73 0.71 0.72 0.72 0.72 0.74 0.76 0.72 0.68 0.66 0.70 0.90 1.01 0.85 0.80 0.99 1.05 1.06 0.90 0.78 0.79 0.97 0.96 0.89 0.90 0.97 1.06 1.02 0.95 0.90 0.80 0.82 0.80 0.79 0.71 0.59 0.79 0.85 0.97 0.92 0.84 0.81 0.76 0.82 0.87 0.93 0.87 1.09 1.25 1.21
0.67 0.67 0.71 0.72 0.74 0.74 0.72 0.70 0.69 0.70 0.71 0.68 0.66 0.64 0.72 0.92 1.00 0.88 1.06 1.06 1.03 0.95 0.97 0.77 0.77 0.81 0.97 0.78 0.74 0.84 0.83 0.88 0.83 0.73 0.76 0.75 0.81 0.78 0.61 0.74 0.82 0.86 0.90 0.93 0.96 0.99 0.99 1.01 0.92 0.94 1.09 1.19 1.19 1.16
0.68 0.66 0.71 0.74 0.74 0.70 0.66 0.64 0.66 0.69 0.68 0.65 0.64 0.69 0.80 0.87 0.83 0.93 1.08 1.11 1.03 1.00 0.80 0.81 0.83 0.71 1.10 0.84 0.77 0.73 0.72 0.58 0.67 0.55 0.55 0.59 0.65 0.55 0.56 0.79 0.90 0.90 0.91 0.93 0.94 0.87 0.92 1.05 1.01 1.01 0.99 1.11 1.16 1.17
0.70 0.69 0.72 0.73 0.72 0.67 0.64 0.63 0.66 0.68 0.64 0.64 0.62 0.72 0.71 0.85 1.06 1.07 0.96 0.85 0.85 0.92 0.88 0.75 0.97 0.87 0.91 0.81 0.72 0.65 0.66 0.55 0.48 0.53 0.59 0.55 0.57 0.74 0.81 0.90 0.93 0.90 0.88 0.89 0.83 0.87 0.98 1.00 1.11 1.18 1.15 1.34 1.22 1.14
0.69 0.71 0.70 0.70 0.67 0.65 0.64 0.64 0.68 0.68 0.66 0.64 0.67 0.74 0.98 1.11 0.99 0.88 0.77 0.71 0.73 0.65 0.75 0.73 0.84 0.84 1.07 0.83 0.75 0.72 0.58 0.59 0.45 0.50 0.48 0.49 0.54 0.84 0.98 0.94 0.94 0.97 1.00 1.12 1.15 1.15 1.14 1.05 1.09 1.24 1.24 1.21 1.16 1.18
0.69 0.68 0.67 0.70 0.72 0.69 0.67 0.67 0.69 0.66 0.64 0.70 0.83 1.00 0.97 0.87 0.80 0.73 0.68 0.71 0.67 0.56 0.68 0.64 0.77 0.90 0.98 1.12 0.84 0.79 0.64 0.65 0.49 0.66 0.55 0.44 0.56 0.88 0.96 0.97 1.02 1.12 1.14 1.10 1.13 1.17 1.22 1.23 1.23 1.18 1.16 1.22 1.25 1.21
0.68 0.67 0.67 0.69 0.70 0.72 0.72 0.71 0.69 0.70 0.78 0.88 0.83 0.75 0.74 0.73 0.60 0.58 0.53 0.58 0.60 0.67 0.70 0.72 0.74 0.94 0.97 1.17 1.00 0.80 0.70 0.62 0.76 0.59 0.52 0.65 0.86 1.01 1.06 1.15 1.18 1.20 1.14 1.07 1.09 1.13 1.17 1.17 1.18 1.12 1.08 1.13 1.15 1.13
0.71 0.69 0.67 0.68 0.72 0.68 0.68 0.69 0.68 0.72 0.76 0.72 0.67 0.57 0.62 0.61 0.65 0.69 0.70 0.68 0.70 0.73 0.72 0.81 0.82 0.99 0.89 0.91 0.87 0.71 0.77 0.85 0.62 0.54 0.59 0.82 1.00 1.13 1.29 1.26 1.15 1.13 1.13 1.08 1.06 1.07 1.05 1.03 1.04 1.08 1.07 1.10 1.09 1.09
0.72 0.71 0.68 0.68 0.71 0.65 0.67 0.67 0.67 0.79 0.82 0.68 0.69 0.57 0.64 0.74 0.80 0.86 0.90 0.85 0.92 1.02 0.88 0.87 0.83 0.93 0.83 0.82 0.88 0.84 0.70 0.65 0.71 0.66 0.82 0.99 1.13 1.18 1.24 1.26 1.22 1.12 1.08 1.03 1.05 1.02 1.00 0.99 0.98 1.01 1.07 1.10 1.11 1.10
0.72 0.69 0.66 0.70 0.68 0.65 0.67 0.69 0.72 0.87 0.81 0.73 0.73 0.68 0.76 0.76 0.80 0.89 0.93 0.89 0.93 0.94 0.95 0.98 0.81 0.75 0.82 0.86 0.78 0.73 0.69 0.65 0.82 0.96 1.12 1.18 1.21 1.19 1.25 1.20 1.14 1.05 1.03 1.02 1.02 1.02 1.01 0.99 0.98 0.99 1.05 1.07 1.07 1.06
0.71 0.65 0.71 0.68 0.66 0.67 0.68 0.70 0.75 0.72 0.73 0.71 0.69 0.82 0.81 0.82 0.82 0.89 0.93 0.94 1.06 0.89 0.74 0.84 0.78 0.73 0.83 0.74 0.72 0.78 0.73 0.84 1.02 1.08 1.22 1.27 1.16 1.12 1.13 1.08 1.05 1.04 1.01 1.01 1.01 1.01 0.99 1.01 1.02 0.99 0.94 0.94 0.90 0.88
0.66 0.76 0.71 0.66 0.66 0.70 0.72 0.74 0.73 0.70 0.64 0.72 0.68 0.74 0.81 0.84 0.84 0.94 1.02 1.05 1.00 0.88 0.83 0.83 0.90 0.79 0.72 0.66 0.73 0.87 0.86 0.98 1.14 1.20 1.23 1.22 1.17 1.16 1.13 1.08 1.10 1.10 1.05 1.03 1.02 1.03 1.03 1.00 0.96 0.89 0.85 0.81 0.76 0.72
0.63 0.64 0.66 0.66 0.72 0.71 0.70 0.73 0.78 0.64 0.68 0.76 0.79 0.84 0.86 0.87 0.97 1.06 1.10 1.15 1.14 1.12 0.97 0.98 0.85 0.79 0.81 0.96 0.93 0.95 1.00 1.12 1.19 1.17 1.16 1.16 1.15 1.14 1.13 1.15 1.12 1.03 1.03 1.02 1.02 0.98 0.97 0.97 0.89 0.86 0.80 0.76 0.65 0.60
0.67 0.67 0.68 0.73 0.77 0.73 0.70 0.72 0.84 0.69 0.67 0.74 0.80 0.80 0.86 0.87 0.96 1.04 1.07 1.11 1.08 1.03 0.92 0.89 0.90 0.96 0.96 1.06 1.19 1.24 1.17 1.27 1.21 1.11 1.10 1.17 1.20 1.15 1.13 1.12 1.07 1.09 1.11 1.10 1.03 0.98 0.93 0.84 0.77 0.75 0.70 0.64 0.56 0.52
0.74 0.75 0.79 0.83 0.85 0.85 0.79 0.77 0.73 0.77 0.78 0.74 0.81 0.84 0.83 0.93 0.95 0.98 0.98 1.04 0.92 0.94 0.91 1.01 1.03 1.15 1.21 1.23 1.29 1.37 1.27 1.26 1.17 1.10 1.07 1.04 1.12 1.12 1.12 1.15 1.13 1.08 1.02 0.98 0.93 0.89 0.86 0.75 0.70 0.63 0.60 0.52 0.49 0.47
0.80 0.85 0.82 0.90 0.80 0.80 0.75 0.84 0.79 0.82 0.78 0.78 0.82 0.86 0.82 0.82 0.88 0.93 0.99 0.89 0.89 0.96 1.02 1.03 1.09 1.18 1.21 1.18 1.24 1.29 1.26 1.24 1.21 1.18 1.19 1.17 1.08 1.07 1.08 1.07 1.04 1.03 1.00 0.93 0.90 0.80 0.74 0.69 0.61 0.53 0.49 0.46 0.46 0.43
0.94 0.95 0.91 0.89 0.78 0.76 0.72 0.89 0.74 0.79 0.70 0.74 0.81 0.77 0.79 0.86 0.93 0.99 0.83 0.89 0.93 1.06 1.09 1.12 1.17 1.23 1.22 1.27 1.28 1.27 1.28 1.23 1.17 1.18 1.18 1.15 1.12 1.11 1.07 1.09 1.07 1.00 0.92 0.85 0.78 0.68 0.58 0.51 0.49 0.49 0.47 0.49 0.48 0.44
0.94 0.81 0.76 0.75 0.77 0.69 0.83 0.77 0.83 0.78 0.80 0.76 0.74 0.73 0.79 0.83 0.89 0.79 0.74 0.84 0.98 1.09 1.08 1.11 1.14 1.13 1.17 1.19 1.16 1.17 1.18 1.20 1.15 1.13 1.13 1.08 1.04 1.02 1.01 1.00 1.01 0.98 0.78 0.68 0.62 0.59 0.52 0.48 0.45 0.47 0.46 0.42 0.42 0.43
0.65 0.66 0.74 0.69 0.77 0.72 0.70 0.74 0.76 0.76 0.68 0.73 0.72 0.72 0.75 0.84 0.72 0.71 0.74 0.86 0.99 1.04 1.07 1.09 1.08 1.09 1.06 1.07 1.10 1.12 1.19 1.19 1.13 1.07 1.12 1.12 1.06 1.02 0.95 0.86 0.75 0.70 0.69 0.64 0.58 0.55 0.53 0.46 0.44 0.46 0.42 0.41 0.42 0.40
0.58 0.72 0.69 0.71 0.72 0.68 0.68 0.66 0.70 0.71 0.74 0.72 0.73 0.78 0.81 0.74 0.67 0.69 0.82 0.93 1.00 1.04 1.05 1.06 1.06 1.07 1.10 1.14 1.11 1.11 1.12 1.15 1.08 0.97 0.96 0.97 0.92 0.85 0.79 0.73 0.70 0.67 0.64 0.59 0.53 0.49 0.45 0.42 0.41 0.41 0.40 0.42 0.42 0.43
0.62 0.66 0.76 0.84 0.77 0.73 0.71 0.74 0.80 0.78 0.71 0.72 0.76 0.76 0.75 0.66 0.67 0.78 0.91 0.97 0.96 1.05 1.13 1.17 1.13 1.10 1.08 1.09 1.11 1.12 1.13 1.13 1.10 1.03 0.98 0.92 0.86 0.76 0.73 0.69 0.62 0.58 0.55 0.47 0.44 0.41 0.39 0.39 0.39 0.40 0.41 0.44 0.46 0.47
0.73 0.74 0.64 0.71 0.71 0.74 0.66 0.70 0.71 0.72 0.75 0.84 0.85 0.76 0.72 0.71 0.71 0.84 0.89 0.96 1.00 1.03 1.04 1.06 1.06 1.04 1.01 1.02 1.02 0.99 1.00 1.00 0.95 0.86 0.74 0.65 0.62 0.62 0.62 0.60 0.57 0.50 0.43 0.39 0.39 0.39 0.40 0.43 0.44 0.44 0.44 0.44 0.44 0.46
0.73 0.79 0.77 0.69 0.72 0.73 0.73 0.71 0.73 0.82 0.88 0.85 0.79 0.75 0.79 0.90 0.94 0.90 0.92 0.91 0.95 0.90 0.85 0.85 0.86 0.90 0.86 0.84 0.83 0.83 0.80 0.72 0.60 0.50 0.48 0.49 0.49 0.49 0.49 0.40 0.34 0.37 0.34 0.34 0.36 0.38 0.40 0.40 0.41 0.46 0.47 0.46 0.47 0.49
0.72 0.83 0.72 0.72 0.70 0.68 0.76 0.82 0.79 0.88 0.90 0.90 0.91 0.88 0.87 0.90 0.92 0.94 0.87 0.84 0.80 0.72 0.69 0.67 0.68 0.69 0.70 0.70 0.69 0.66 0.65 0.62 0.58 0.56 0.53 0.51 0.51 0.53 0.50 0.42 0.40 0.42 0.44 0.45 0.44 0.45 0.48 0.51 0.52 0.51 0.49 0.50 0.51 0.53
0.79 0.79 0.72 0.73 0.72 0.79 0.84 0.89 0.91 0.89 0.87 0.85 0.88 0.81 0.78 0.83 0.90 0.92 0.84 0.81 0.76 0.72 0.68 0.64 0.63 0.62 0.61 0.59 0.57 0.55 0.52 0.55 0.55 0.54 0.52 0.49 0.50 0.49 0.44 0.40 0.41 0.43 0.43 0.42 0.45 0.48 0.51 0.51 0.51 0.51 0.51 0.53 0.56 0.58
0.78 0.73 0.69 0.67 0.72 0.83 0.86 0.81 0.80 0.79 0.81 0.81 0.80 0.84 0.83 0.80 0.73 0.77 0.80 0.77 0.70 0.64 0.62 0.60 0.57 0.56 0.57 0.57 0.56 0.55 0.54 0.54 0.54 0.51 0.46 0.46 0.41 0.36 0.36 0.37 0.41 0.45 0.47 0.48 0.50 0.53 0.55 0.54 0.52 0.53 0.56 0.58 0.57 0.56
0.75 0.78 0.77 0.76 0.73 0.71 0.74 0.72 0.71 0.72 0.74 0.73 0.73 0.74 0.73 0.72 0.66 0.72 0.79 0.79 0.76 0.72 0.64 0.63 0.61 0.59 0.58 0.56 0.56 0.56 0.55 0.53 0.50 0.42 0.33 0.33 0.34 0.38 0.43 0.47 0.48 0.48 0.48 0.50 0.54 0.57 0.58 0.57 0.55 0.57 0.56 0.55 0.54 0.52
Wind_Speed
26 24 23 22 21 21 20 19 19 18 17 17 17 18 18 19 20 23 28 28 28 31 29 27 24 24 21 18 17 21 22 22 21 20 18 20 17 22 18 18 17 16 14 15 16 15 13 13 13 11 14 13 14 16
25 23 22 22 21 20 19 19 18 16 16 16 17 17 17 18 19 21 27 26 27 29 30 29 27 27 25 22 18 20 20 20 23 22 19 16 15 14 16 13 15 15 15 14 13 14 14 11 10 11 12 13 16 18
24 23 22 21 21 20 19 18 17 16 14 15 16 18 17 17 19 21 25 25 25 26 28 31 31 28 24 26 22 20 18 16 19 22 20 18 15 16 15 15 13 10 13 14 12 11 11 12 12 13 14 16 19 21
22 22 21 20 20 19 19 18 17 15 14 14 15 16 17 17 18 21 24 25 24 24 24 23 27 30 26 28 25 21 19 15 17 18 19 19 17 16 14 14 14 14 12 13 14 14 13 14 15 16 17 20 20 19
21 21 20 20 19 18 18 17 16 14 14 14 14 16 17 17 18 21 23 25 26 24 23 25 27 24 25 26 24 25 20 15 15 15 17 17 16 15 16 14 12 12 14 15 15 14 13 15 16 17 19 20 17 15
20 19 19 19 18 17 16 15 14 13 12 13 14 15 15 16 18 21 21 23 24 22 21 24 22 24 25 28 26 24 24 19 15 20 19 18 16 16 14 15 13 12 12 13 13 12 13 15 16 15 17 18 13 13
20 19 19 18 17 15 14 12 11 11 12 12 13 13 15 14 19 24 22 22 22 22 22 21 20 21 22 25 27 26 25 22 16 12 15 14 16 17 16 15 16 14 14 14 14 15 16 16 14 15 15 13 12 14
20 19 19 17 15 13 12 10 10 10 10 11 12 13 13 15 20 23 22 20 24 24 22 20 19 20 23 23 24 27 26 24 21 18 17 16 15 15 16 16 16 15 14 14 14 14 15 14 14 13 12 11 12 12
19 18 17 15 13 11 10 9 8 9 9 9 10 11 12 17 19 22 21 20 24 23 21 21 16 17 21 26 23 23 23 23 21 21 21 20 20 18 19 16 15 14 14 13 14 16 14 13 15 12 11 11 11 11
17 15 13 12 11 9 8 8 7 7 8 9 10 9 13 18 18 18 21 21 23 24 24 23 18 13 13 21 22 22 21 21 20 21 20 21 19 19 18 17 15 15 14 14 15 12 11 10 11 10 12 13 10 11
14 13 11 9 8 7 5 5 6 5 8 10 9 10 13 16 18 20 19 20 22 21 25 25 21 17 15 15 18 19 18 18 18 20 20 20 19 18 17 16 16 15 13 9 7 8 8 9 9 8 8 9 9 9
12 11 10 8 6 5 4 5 7 7 9 8 7 13 15 16 18 17 19 19 20 19 20 27 21 18 18 17 16 16 18 17 16 19 18 17 20 20 17 16 15 13 11 8 8 7 6 5 6 7 6 8 10 11
12 11 8 6 4 4 5 7 8 8 8 9 11 15 15 15 16 18 18 18 18 18 18 24 22 17 20 18 17 16 13 16 15 16 16 15 17 18 17 16 13 11 9 9 8 7 6 5 5 6 7 8 9 10
11 9 7 5 4 4 6 8 9 8 10 9 14 15 13 13 14 17 14 14 16 14 17 21 23 13 12 17 12 14 13 15 15 16 14 15 16 16 16 16 14 11 9 8 8 7 7 7 6 7 7 7 7 8
8 6 5 4 4 5 8 10 10 10 9 12 13 14 10 12 11 13 15 16 17 15 17 18 20 14 15 13 14 12 13 10 12 11 14 15 16 14 10 9 10 9 8 8 8 7 7 6 6 5 6 6 7 8
4 4 4 5 5 8 10 10 11 11 11 11 13 10 7 11 10 11 12 14 16 16 17 16 15 17 12 11 10 9 9 9 8 9 13 14 14 13 12 9 8 7 7 7 7 6 5 5 5 6 6 6 6 5
4 5 5 6 8 10 11 12 12 11 11 13 11 7 9 11 10 9 10 12 13 15 18 18 12 13 14 10 10 12 10 10 8 9 11 14 13 12 11 9 8 7 6 6 5 5 4 3 5 5 5 5 5 5
6 6 7 8 10 11 12 12 11 11 11 11 9 7 9 9 9 8 8 10 13 14 15 13 15 14 12 13 9 10 10 7 11 14 13 15 14 12 11 9 8 7 6 6 5 5 4 3 3 4 4 4 5 6
6 7 8 10 12 11 10 11 12 10 9 9 8 7 7 8 8 7 6 8 12 13 13 11 13 13 11 8 11 11 8 10 14 14 14 14 13 12 11 9 7 7 7 6 5 4 4 5 4 4 5 5 5 5
8 10 11 12 11 9 9 10 11 9 8 6 7 6 6 8 8 7 7 9 8 9 12 11 12 12 11 8 12 13 14 13 15 14 13 13 12 10 9 8 8 7 6 5 3 3 4 4 3 4 4 5 7 7
10 11 11 10 9 8 9 10 9 8 6 5 6 7 8 9 8 8 9 7 3 8 10 11 11 9 10 11 10 11 14 13 13 12 12 11 9 9 8 7 6 5 5 5 4 3 3 4 5 5 6 6 7 9
10 9 9 8 7 8 8 8 7 6 6 6 7 9 9 8 8 7 6 6 7 9 9 9 9 10 11 11 9 11 11 12 12 11 10 9 9 9 7 6 5 4 4 4 4 3 4 5 5 5 6 7 8 10
8 9 8 8 8 8 6 5 6 6 7 9 9 10 9 8 7 7 7 6 5 7 8 9 9 9 10 11 12 12 12 11 10 10 9 9 9 9 7 6 5 5 4 4 4 4 5 6 6 7 9 10 11 12
7 7 8 8 8 6 6 7 8 9 9 9 9 10 7 8 7 6 6 6 5 7 10 11 9 10 11 11 11 10 10 11 11 10 10 10 8 6 6 6 6 6 5 4 4 5 6 6 8 9 10 11 13 13
7 7 7 6 7 7 7 7 8 8 8 9 7 9 8 7 7 7 6 6 7 9 9 9 9 9 11 12 12 11 11 11 11 10 9 7 6 6 6 5 4 3 5 5 6 6 6 8 9 10 11 13 12 15
6 6 6 5 5 5 6 8 9 10 9 9 10 10 9 8 7 7 7 7 9 10 10 10 10 11 10 13 14 12 10 9 9 7 5 4 4 7 6 6 6 6 6 6 7 8 9 10 11 11 13 12 13 14
4 5 5 5 5 6 8 8 8 9 8 9 11 10 9 8 8 9 9 9 10 10 10 11 10 10 10 10 10 9 8 9 9 7 4 3 3 2 3 5 4 6 7 8 9 9 9 10 11 11 12 12 13 14
5 6 7 6 8 8 8 8 7 8 7 8 8 7 7 7 8 10 10 10 10 10 11 11 10 10 10 9 9 8 7 7 7 6 4 4 4 4 5 6 7 7 7 7 8 8 9 10 10 11 13 14 15 15
7 8 7 7 7 6 6 6 7 8 7 6 5 6 7 7 11 10 11 10 10 10 9 9 9 8 8 7 7 6 5 5 5 5 6 5 5 5 5 6 7 8 8 7 7 8 9 9 10 10 12 12 12 12
8 8 7 7 6 5 5 6 5 3 4 6 6 7 10 11 11 11 10 8 7 8 7 8 7 7 6 5 5 5 5 5 5 5 6 7 7 7 7 7 6 7 7 7 7 6 8 8 10 11 11 12 12 13
8 6 6 7 6 5 4 5 5 5 6 8 9 11 11 10 9 8 8 6 6 6 6 6 5 5 5 5 5 5 5 5 5 6 6 6 5 6 6 7 6 6 6 6 6 7 8 10 10 11 11 12 13 14
6 6 7 7 7 7 7 7 8 9 9 10 10 9 9 8 7 7 7 5 6 6 5 4 4 4 5 5 5 4 4 5 6 6 7 8 7 7 7 6 6 6 6 7 7 8 9 10 11 12 14 13 15 17
8 9 11 10 8 7 8 8 8 8 8 8 7 6 6 4 4 4 7 7 5 3 5 5 5 6 4 4 4 4 5 6 7 7 6 6 6 5 5 5 5 6 7 8 9 10 11 12 13 14 15 17 18 18
Wind_Direction
308 306 304 302 301 299 299 298 294 282 272 261 253 243 238 234 227 219 214 212 212 213 217 217 215 217 213 211 210 211 214 215 213 212 217 214 219 228 230 230 229 228 232 244 251 252 253 279 269 258 258 274 281 285
307 305 304 301 299 299 296 295 292 284 269 259 247 240 236 232 225 219 211 213 217 213 215 219 218 215 215 216 218 211 215 217 213 212 216 211 221 219 213 227 224 229 231 231 240 245 252 261 255 264 272 279 285 287
307 305 303 300 299 296 295 291 288 280 268 257 246 236 233 230 224 217 213 214 214 214 218 214 210 211 215 213 215 209 209 211 211 210 211 213 209 215 215 225 222 231 240 228 233 257 258 268 268 271 278 286 288 288
308 306 303 301 300 294 293 288 284 274 261 255 243 233 230 228 225 217 211 211 210 210 208 207 203 219 219 204 206 205 206 212 211 207 206 210 210 218 216 221 220 232 241 236 242 256 252 269 270 274 281 285 288 295
308 307 305 302 299 294 292 287 279 267 255 250 240 232 230 227 225 216 212 208 205 204 206 211 217 210 201 198 202 202 200 200 198 200 202 206 211 212 217 221 225 238 243 248 247 249 254 264 270 274 283 285 287 287
309 308 306 304 300 296 292 286 274 259 250 245 237 230 228 227 218 204 197 195 198 202 204 203 208 209 212 206 204 202 204 206 211 227 211 207 213 212 217 222 237 234 244 243 249 260 260 266 269 278 282 284 278 284
308 307 307 305 301 295 289 282 271 252 249 242 233 229 225 220 205 195 196 196 202 201 199 202 202 201 203 203 205 204 203 207 210 197 198 204 215 219 226 231 232 233 241 249 259 260 267 273 270 282 283 271 274 281
308 306 306 303 298 293 287 279 263 251 246 234 228 222 220 216 201 196 191 196 195 194 197 199 203 209 207 203 205 206 209 216 221 224 223 223 226 229 232 227 234 238 249 251 256 268 269 269 272 278 282 271 287 298
309 305 305 301 295 289 282 273 258 244 234 224 220 220 208 192 189 189 195 196 192 193 195 191 183 186 206 204 202 204 208 216 222 224 227 226 230 232 232 224 231 240 244 250 261 269 269 275 258 270 265 266 267 283
313 310 306 300 293 286 275 265 250 231 219 212 200 194 190 186 190 189 184 187 191 194 196 196 197 191 179 190 197 200 207 211 218 221 220 226 232 229 221 223 229 239 246 257 260 257 255 273 281 281 286 264 276 276
312 310 308 302 294 284 265 249 215 204 185 178 188 188 177 181 178 181 185 188 189 196 198 199 200 202 194 195 197 200 206 209 216 216 215 222 223 222 218 224 227 237 241 243 247 251 252 254 269 274 279 280 286 275
308 310 308 298 287 265 252 209 190 181 178 179 186 172 170 172 178 184 186 187 190 194 194 195 194 197 195 200 203 202 205 208 215 202 212 222 222 214 217 221 224 225 218 226 233 236 253 260 265 280 283 285 291 289
299 298 300 286 268 255 218 195 186 185 184 173 171 167 165 168 183 184 180 184 188 190 188 185 187 197 203 212 190 192 205 207 211 207 214 221 207 207 210 212 207 206 213 220 226 236 241 247 260 271 279 286 290 299
292 284 277 260 246 218 188 180 178 174 170 161 162 167 171 173 179 179 186 186 187 190 189 185 185 195 194 195 194 197 226 212 215 210 212 207 200 205 207 202 200 204 213 217 224 231 239 252 265 278 286 290 298 305
276 266 241 230 206 187 176 171 167 163 164 160 162 167 175 181 187 198 197 192 190 188 187 191 188 191 184 184 205 211 198 202 216 210 205 200 197 194 193 189 187 198 209 214 219 231 243 257 268 278 284 293 299 301
244 215 197 185 175 167 164 163 162 154 158 160 164 174 185 185 177 172 176 184 192 189 186 187 196 195 190 191 188 185 192 204 217 198 183 183 183 187 186 197 197 197 202 202 208 215 230 252 262 270 278 291 296 298
153 155 156 158 159 161 160 156 160 162 161 160 166 164 171 173 175 177 183 186 186 186 182 198 207 188 193 201 201 198 204 211 199 196 201 190 187 181 178 179 184 182 182 187 194 209 214 254 270 268 280 289 295 299
126 133 137 142 146 147 151 157 160 162 169 172 171 173 170 178 184 178 182 191 194 187 191 193 201 193 193 194 203 203 207 210 201 180 163 166 165 166 168 169 171 175 184 188 193 209 232 259 273 270 276 285 296 298
120 127 133 135 137 142 151 156 159 160 167 170 170 171 177 183 182 183 188 183 180 181 191 190 184 185 183 192 190 194 176 165 153 154 156 155 158 163 167 170 178 177 182 194 209 224 239 250 273 275 281 280 292 294
112 124 129 133 134 139 146 153 160 164 163 171 177 169 170 173 174 171 164 156 165 175 179 177 177 182 192 203 196 191 171 163 152 149 153 160 165 167 171 175 178 183 190 196 212 242 251 259 282 293 287 291 295 300
107 117 123 127 129 139 145 149 155 166 165 169 176 175 170 165 164 158 154 150 189 159 157 173 176 179 185 167 154 157 161 158 159 159 158 160 167 168 169 177 183 194 203 221 244 243 237 258 285 277 283 295 303 305
107 112 120 124 126 135 144 153 157 163 167 171 162 159 158 161 163 157 158 124 118 139 143 151 160 170 165 164 165 164 162 159 162 164 167 171 174 176 178 181 192 211 199 216 251 244 269 282 285 287 293 297 304 311
100 107 106 114 122 128 135 132 154 155 152 149 149 150 152 151 139 138 145 143 135 161 158 152 157 153 158 163 159 161 166 168 172 178 182 178 179 181 197 199 210 214 244 250 262 270 276 281 290 292 296 299 299 305
104 107 111 113 116 105 111 111 131 141 144 145 143 155 142 144 146 138 137 145 140 142 151 154 151 154 156 163 166 168 170 169 165 164 168 168 176 192 201 217 232 253 234 251 265 282 281 284 288 294 298 301 304 307
112 114 111 102 116 111 119 107 124 137 136 147 150 146 145 143 146 144 144 147 150 144 144 153 158 163 164 161 160 158 155 159 160 162 174 190 210 225 226 214 199 238 257 259 275 284 284 299 290 298 302 306 309 311
122 122 113 110 105 101 103 108 100 104 116 134 133 138 138 135 135 136 142 142 146 147 146 144 137 141 149 157 158 157 161 167 170 173 182 202 239 221 223 229 245 260 272 289 281 284 291 296 300 303 302 301 307 313
122 121 119 106 118 123 123 116 104 116 114 108 128 129 126 124 129 141 139 133 134 139 144 149 153 154 152 150 155 165 171 175 177 187 209 212 202 202 239 239 239 266 277 285 288 292 296 300 302 304 307 309 307 306
132 113 117 108 113 119 125 121 114 114 118 124 128 142 138 125 133 146 145 138 133 133 135 141 139 139 143 145 150 154 161 174 190 207 210 223 239 257 263 267 271 277 286 290 293 297 302 308 310 312 313 314 313 313
133 126 123 120 119 120 129 134 135 130 122 130 129 130 141 136 142 141 140 141 141 145 146 151 160 165 159 158 166 175 187 192 199 218 231 246 258 258 276 288 267 270 278 280 290 304 308 308 311 317 321 323 321 318
140 133 130 131 122 111 117 131 149 151 142 146 139 132 137 143 144 145 145 146 146 148 145 147 150 160 171 182 186 198 207 215 231 247 263 274 255 254 268 278 279 274 271 270 284 291 309 313 312 315 318 321 321 321
143 141 136 134 126 124 121 116 125 136 134 134 139 138 139 143 153 162 164 161 157 158 164 168 177 185 193 202 211 228 224 233 247 266 278 287 270 272 275 277 275 274 275 274 281 282 293 308 314 318 317 315 316 321
150 151 147 142 135 117 111 107 106 119 124 130 136 138 143 145 147 160 165 165 165 176 187 203 207 213 227 226 231 252 252 251 266 277 267 269 275 278 277 267 270 264 272 278 284 292 296 300 310 313 315 319 321 320
133 131 133 133 135 132 129 118 117 119 125 133 141 150 158 161 170 189 194 201 213 222 221 238 237 234 240 232 246 256 264 266 269 274 266 261 262 262 267 274 267 269 280 282 288 296 301 303 306 313 315 316 316 317